Time,TemperatureF,DewpointF,PressureIn,WindDirection,WindDirectionDegrees,WindSpeedMPH,WindSpeedGustMPH,Humidity,HourlyPrecipIn,Conditions,Clouds,dailyrainin,SoftwareType,DateUTC
2013-02-14 00:00:00,32.2,28.2,29.82,South,180,2.0,8.0,85,0.00,,SKC,0.00,VWS V14.01,2013-02-14 05:00:00,
2013-02-14 00:05:00,32.1,28.0,29.82,South,177,1.0,7.0,85,0.00,,,0.00,weatherlink.com 1.10,2013-02-14 05:05:00,
2013-02-14 00:20:00,33.1,29.0,29.83,South,189,2.0,7.0,83,0.00,,,0.00,weatherlink.com 1.10,2013-02-14 05:20:00,
2013-02-14 00:30:00,33.5,28.6,29.83,SSW,202,3.0,8.0,82,0.00,,SKC,0.00,VWS V14.01,2013-02-14 05:30:00,
2013-02-14 00:35:00,33.4,29.0,29.83,SSW,213,1.0,6.0,82,0.00,,,0.00,weatherlink.com 1.10,2013-02-14 05:35:00,
2013-02-14 00:50:00,32.8,28.0,29.83,South,184,1.0,7.0,83,0.00,,,0.00,weatherlink.com 1.10,2013-02-14 05:50:00,
2013-02-14 01:00:00,33.0,28.7,29.83,SSW,202,3.0,7.0,84,0.00,,SKC,0.00,VWS V14.01,2013-02-14 06:00:00,
2013-02-14 01:05:00,33.3,29.0,29.83,SSW,210,0.0,7.0,83,0.00,,,0.00,weatherlink.com 1.10,2013-02-14 06:05:00,
2013-02-14 01:20:00,33.8,29.0,29.83,South,190,3.0,9.0,81,0.00,,,0.00,weatherlink.com 1.10,2013-02-14 06:20:00,
2013-02-14 01:30:00,33.7,28.5,29.83,SSW,202,3.0,9.0,81,0.00,,SKC,0.00,VWS V14.01,2013-02-14 06:30:00,
2013-02-14 01:35:00,33.5,28.0,29.83,SSW,202,6.0,8.0,81,0.00,,,0.00,weatherlink.com 1.10,2013-02-14 06:35:00,
2013-02-14 01:50:00,33.0,28.0,29.83,South,188,2.0,10.0,82,0.00,,,0.00,weatherlink.com 1.10,2013-02-14 06:50:00,
2013-02-14 02:00:00,32.6,27.7,29.83,SSW,202,4.0,10.0,82,0.00,,SKC,0.00,VWS V14.01,2013-02-14 07:00:00,
2013-02-14 02:05:00,32.5,28.0,29.83,SSW,207,4.0,7.0,83,0.00,,,0.00,weatherlink.com 1.10,2013-02-14 07:05:00,
2013-02-14 02:20:00,32.2,28.0,29.82,SSW,194,3.0,7.0,84,0.00,,,0.00,weatherlink.com 1.10,2013-02-14 07:20:00,
2013-02-14 02:30:00,32.4,28.1,29.82,SSW,202,3.0,9.0,84,0.00,,SKC,0.00,VWS V14.01,2013-02-14 07:30:00,
2013-02-14 02:35:00,32.4,28.0,29.82,SSW,197,8.0,10.0,84,0.00,,,0.00,weatherlink.com 1.10,2013-02-14 07:35:00,
2013-02-14 02:50:00,32.2,28.0,29.83,SSW,212,4.0,7.0,84,0.00,,,0.00,weatherlink.com 1.10,2013-02-14 07:50:00,
2013-02-14 03:00:00,31.9,27.9,29.83,SSW,202,4.0,10.0,85,0.00,,SKC,0.00,VWS V14.01,2013-02-14 08:00:00,
2013-02-14 03:05:00,31.9,28.0,29.82,SSW,211,6.0,8.0,85,0.00,,,0.00,weatherlink.com 1.10,2013-02-14 08:05:00,
2013-02-14 03:20:00,31.9,28.0,29.82,SSW,212,3.0,8.0,85,0.00,,,0.00,weatherlink.com 1.10,2013-02-14 08:20:00,
2013-02-14 03:30:00,31.8,28.1,29.82,SSW,202,3.0,8.0,86,0.00,,SKC,0.00,VWS V14.01,2013-02-14 08:30:00,
2013-02-14 03:35:00,31.8,28.0,29.82,SSW,213,4.0,8.0,86,0.00,,,0.00,weatherlink.com 1.10,2013-02-14 08:35:00,
2013-02-14 03:50:00,31.4,28.0,29.82,SSW,202,1.0,7.0,86,0.00,,,0.00,weatherlink.com 1.10,2013-02-14 08:50:00,
2013-02-14 04:00:00,31.2,27.8,29.82,SSW,202,3.0,8.0,87,0.00,,SKC,0.00,VWS V14.01,2013-02-14 09:00:00,
2013-02-14 04:05:00,31.2,28.0,29.82,South,190,4.0,6.0,87,0.00,,,0.00,weatherlink.com 1.10,2013-02-14 09:05:00,
2013-02-14 04:20:00,31.5,28.0,29.82,SSW,204,3.0,7.0,88,0.00,,,0.00,weatherlink.com 1.10,2013-02-14 09:20:00,
2013-02-14 04:30:00,31.6,28.5,29.82,SSW,202,3.0,8.0,88,0.00,,SKC,0.00,VWS V14.01,2013-02-14 09:30:00,
2013-02-14 04:35:00,31.7,29.0,29.82,South,180,5.0,8.0,88,0.00,,,0.00,weatherlink.com 1.10,2013-02-14 09:35:00,
2013-02-14 04:50:00,32.1,29.0,29.82,South,189,3.0,9.0,88,0.00,,,0.00,weatherlink.com 1.10,2013-02-14 09:50:00,
2013-02-14 05:00:00,31.8,28.7,29.82,SSW,202,4.0,9.0,88,0.00,,SKC,0.00,VWS V14.01,2013-02-14 10:00:00,
2013-02-14 05:05:00,31.8,29.0,29.82,South,178,1.0,8.0,88,0.00,,,0.00,weatherlink.com 1.10,2013-02-14 10:05:00,
2013-02-14 05:21:00,32.1,29.0,29.82,SSW,196,4.0,7.0,88,0.00,,,0.00,weatherlink.com 1.10,2013-02-14 10:21:00,
2013-02-14 05:30:00,32.2,29.0,29.82,SSW,202,3.0,8.0,88,0.00,,SKC,0.00,VWS V14.01,2013-02-14 10:30:00,
2013-02-14 05:35:00,32.1,29.0,29.82,South,190,2.0,7.0,88,0.00,,,0.00,weatherlink.com 1.10,2013-02-14 10:35:00,
2013-02-14 05:50:00,32.0,29.0,29.82,SSW,194,5.0,7.0,88,0.00,,,0.00,weatherlink.com 1.10,2013-02-14 10:50:00,
2013-02-14 06:00:00,32.1,29.2,29.82,SSW,202,3.0,9.0,89,0.00,,SKC,0.00,VWS V14.01,2013-02-14 11:00:00,
2013-02-14 06:05:00,32.1,29.0,29.82,SSW,196,3.0,8.0,89,0.00,,,0.00,weatherlink.com 1.10,2013-02-14 11:05:00,
2013-02-14 06:21:00,32.4,30.0,29.82,SSW,195,8.0,8.0,89,0.00,,,0.00,weatherlink.com 1.10,2013-02-14 11:21:00,
2013-02-14 06:30:00,32.6,29.7,29.82,South,180,4.0,12.0,89,0.00,,SKC,0.00,VWS V14.01,2013-02-14 11:30:00,
2013-02-14 06:35:00,32.6,30.0,29.82,South,178,4.0,7.0,89,0.00,,,0.00,weatherlink.com 1.10,2013-02-14 11:35:00,
2013-02-14 06:50:00,32.6,30.0,29.82,South,180,4.0,10.0,90,0.00,,,0.00,weatherlink.com 1.10,2013-02-14 11:50:00,
2013-02-14 07:05:00,32.7,30.0,29.82,South,185,3.0,11.0,90,0.00,,,0.00,weatherlink.com 1.10,2013-02-14 12:05:00,
2013-02-14 07:11:00,32.7,30.1,29.82,SSW,192,5.0,5.0,90,0.00,,SKC,0.00,VWS V14.01,2013-02-14 12:11:00,
2013-02-14 07:16:00,32.7,30.1,29.82,South,186,4.0,8.0,90,0.00,,SKC,0.00,VWS V14.01,2013-02-14 12:16:00,
2013-02-14 07:21:00,32.8,30.2,29.82,South,170,3.0,9.0,90,0.00,,SKC,0.00,VWS V14.01,2013-02-14 12:21:00,
2013-02-14 07:26:00,32.8,30.2,29.82,South,177,6.0,8.0,90,0.00,,SKC,0.00,VWS V14.01,2013-02-14 12:26:00,
2013-02-14 07:30:00,32.9,30.3,29.82,South,186,7.0,12.0,90,0.00,,SKC,0.00,VWS V14.01,2013-02-14 12:30:00,
2013-02-14 07:31:00,32.9,30.3,29.82,South,180,8.0,9.0,90,0.00,,SKC,0.00,VWS V14.01,2013-02-14 12:31:00,
2013-02-14 07:36:00,33.0,30.4,29.82,South,190,6.0,9.0,90,0.00,,SKC,0.00,VWS V14.01,2013-02-14 12:36:00,
2013-02-14 07:41:00,33.0,30.4,29.82,South,186,7.0,11.0,90,0.00,,SKC,0.00,VWS V14.01,2013-02-14 12:41:00,
2013-02-14 07:46:00,33.1,30.5,29.83,SW,220,12.0,12.0,90,0.00,,SKC,0.00,VWS V14.01,2013-02-14 12:46:00,
2013-02-14 07:51:00,33.2,30.6,29.83,South,188,7.0,13.0,90,0.00,,SKC,0.00,VWS V14.01,2013-02-14 12:51:00,
2013-02-14 07:56:00,33.3,30.7,29.83,SSE,167,4.0,15.0,90,0.00,,SKC,0.00,VWS V14.01,2013-02-14 12:56:00,
2013-02-14 08:00:00,33.4,30.8,29.83,South,190,11.0,15.0,90,0.00,,SKC,0.00,VWS V14.01,2013-02-14 13:00:00,
2013-02-14 08:01:00,33.4,30.8,29.83,SSE,167,7.0,15.0,90,0.00,,SKC,0.00,VWS V14.01,2013-02-14 13:01:00,
2013-02-14 08:06:00,33.5,30.9,29.83,South,184,6.0,12.0,90,0.00,,SKC,0.00,VWS V14.01,2013-02-14 13:06:00,
2013-02-14 08:11:00,33.5,30.9,29.83,South,185,9.0,13.0,90,0.00,,SKC,0.00,VWS V14.01,2013-02-14 13:11:00,
2013-02-14 08:16:00,33.6,31.0,29.83,South,187,12.0,14.0,90,0.00,,SKC,0.00,VWS V14.01,2013-02-14 13:16:00,
2013-02-14 08:21:00,33.6,31.0,29.83,South,183,8.0,13.0,90,0.00,,SKC,0.00,VWS V14.01,2013-02-14 13:21:00,
2013-02-14 08:27:00,33.6,31.0,29.83,South,188,5.0,15.0,90,0.00,,SKC,0.00,VWS V14.01,2013-02-14 13:27:00,
2013-02-14 08:30:00,33.7,31.1,29.83,South,176,4.0,10.0,90,0.00,,SKC,0.00,VWS V14.01,2013-02-14 13:30:00,
2013-02-14 08:32:00,33.7,31.1,29.83,South,170,3.0,10.0,90,0.00,,SKC,0.00,VWS V14.01,2013-02-14 13:32:00,
2013-02-14 08:36:00,33.8,31.2,29.83,South,188,12.0,16.0,90,0.00,,SKC,0.00,VWS V14.01,2013-02-14 13:36:00,
2013-02-14 08:42:00,33.9,31.3,29.83,South,188,9.0,12.0,90,0.00,,SKC,0.00,VWS V14.01,2013-02-14 13:42:00,
2013-02-14 08:47:00,33.9,31.3,29.83,SSE,167,4.0,14.0,90,0.00,,SKC,0.00,VWS V14.01,2013-02-14 13:47:00,
2013-02-14 08:52:00,34.0,31.4,29.83,South,181,10.0,16.0,90,0.00,,SKC,0.00,VWS V14.01,2013-02-14 13:52:00,
2013-02-14 08:57:00,34.0,31.4,29.82,SSE,163,2.0,10.0,90,0.00,,SKC,0.00,VWS V14.01,2013-02-14 13:57:00,
2013-02-14 09:00:00,33.9,31.3,29.82,SSE,167,4.0,7.0,90,0.00,,SKC,0.00,VWS V14.01,2013-02-14 14:00:00,
2013-02-14 09:02:00,33.9,31.3,29.82,South,180,3.0,6.0,90,0.00,,SKC,0.00,VWS V14.01,2013-02-14 14:02:00,
2013-02-14 09:07:00,34.0,31.4,29.82,South,182,7.0,9.0,90,0.00,,SKC,0.00,VWS V14.01,2013-02-14 14:07:00,
2013-02-14 09:12:00,34.1,31.5,29.82,South,171,7.0,10.0,90,0.00,,SKC,0.00,VWS V14.01,2013-02-14 14:12:00,
2013-02-14 09:17:00,34.1,31.5,29.81,South,182,5.0,5.0,90,0.00,,SKC,0.00,VWS V14.01,2013-02-14 14:17:00,
2013-02-14 09:22:00,34.3,31.7,29.81,South,179,4.0,7.0,90,0.00,,SKC,0.00,VWS V14.01,2013-02-14 14:22:00,
2013-02-14 09:27:00,34.4,31.8,29.81,South,181,5.0,6.0,90,0.00,,SKC,0.00,VWS V14.01,2013-02-14 14:27:00,
2013-02-14 09:30:00,34.6,32.0,29.81,SSE,167,1.0,11.0,90,0.00,,SKC,0.00,VWS V14.01,2013-02-14 14:30:00,
2013-02-14 09:32:00,34.7,32.1,29.81,South,177,3.0,11.0,90,0.00,,SKC,0.00,VWS V14.01,2013-02-14 14:32:00,
2013-02-14 09:37:00,34.7,32.1,29.81,SSE,163,4.0,6.0,90,0.00,,SKC,0.00,VWS V14.01,2013-02-14 14:37:00,
2013-02-14 09:42:00,34.6,31.7,29.81,South,180,5.0,11.0,89,0.00,,SKC,0.00,VWS V14.01,2013-02-14 14:42:00,
2013-02-14 09:47:00,34.7,31.8,29.80,SSE,159,5.0,9.0,89,0.00,,SKC,0.00,VWS V14.01,2013-02-14 14:47:00,
2013-02-14 09:52:00,34.6,31.7,29.80,SSE,167,5.0,6.0,89,0.00,,SKC,0.00,VWS V14.01,2013-02-14 14:52:00,
2013-02-14 09:57:00,34.7,31.8,29.80,SSE,167,4.0,5.0,89,0.00,,SKC,0.00,VWS V14.01,2013-02-14 14:57:00,
2013-02-14 10:00:00,34.8,31.9,29.80,South,180,6.0,7.0,89,0.00,,SKC,0.00,VWS V14.01,2013-02-14 15:00:00,
2013-02-14 10:02:00,34.8,31.9,29.79,South,170,6.0,7.0,89,0.00,,SKC,0.00,VWS V14.01,2013-02-14 15:02:00,
2013-02-14 10:07:00,35.0,32.1,29.80,SSE,164,6.0,7.0,89,0.00,,SKC,0.00,VWS V14.01,2013-02-14 15:07:00,
2013-02-14 10:12:00,35.0,32.1,29.80,South,186,6.0,10.0,89,0.00,,SKC,0.00,VWS V14.01,2013-02-14 15:12:00,
2013-02-14 10:17:00,34.9,32.0,29.80,South,182,10.0,10.0,89,0.00,,SKC,0.00,VWS V14.01,2013-02-14 15:17:00,
2013-02-14 10:22:00,35.0,32.1,29.80,South,180,5.0,10.0,89,0.00,,SKC,0.00,VWS V14.01,2013-02-14 15:22:00,
2013-02-14 10:27:00,34.9,32.0,29.80,South,184,3.0,9.0,89,0.00,,SKC,0.00,VWS V14.01,2013-02-14 15:27:00,
2013-02-14 10:30:00,35.0,32.1,29.80,South,172,5.0,9.0,89,0.00,,SKC,0.00,VWS V14.01,2013-02-14 15:30:00,
2013-02-14 10:32:00,35.0,32.1,29.80,South,189,11.0,11.0,89,0.00,,SKC,0.00,VWS V14.01,2013-02-14 15:32:00,
2013-02-14 10:37:00,35.3,32.4,29.80,SSE,167,4.0,14.0,89,0.00,,SKC,0.00,VWS V14.01,2013-02-14 15:37:00,
2013-02-14 10:42:00,35.7,32.8,29.80,South,176,8.0,12.0,89,0.00,,SKC,0.00,VWS V14.01,2013-02-14 15:42:00,
2013-02-14 10:47:00,35.7,32.5,29.79,South,169,6.0,15.0,88,0.00,,SKC,0.00,VWS V14.01,2013-02-14 15:47:00,
2013-02-14 10:52:00,35.7,32.5,29.79,South,180,5.0,8.0,88,0.00,,SKC,0.00,VWS V14.01,2013-02-14 15:52:00,
2013-02-14 10:57:00,35.9,32.7,29.79,South,179,4.0,6.0,88,0.00,,SKC,0.00,VWS V14.01,2013-02-14 15:57:00,
2013-02-14 11:00:00,36.0,32.8,29.78,SSE,163,5.0,8.0,88,0.00,,SKC,0.00,VWS V14.01,2013-02-14 16:00:00,
2013-02-14 11:02:00,36.0,32.8,29.78,SSE,166,6.0,8.0,88,0.00,,SKC,0.00,VWS V14.01,2013-02-14 16:02:00,
2013-02-14 11:07:00,36.2,33.0,29.78,SSE,163,3.0,8.0,88,0.00,,SKC,0.00,VWS V14.01,2013-02-14 16:07:00,
2013-02-14 11:12:00,36.7,33.5,29.78,South,169,4.0,8.0,88,0.00,,SKC,0.00,VWS V14.01,2013-02-14 16:12:00,
2013-02-14 11:17:00,37.2,33.7,29.78,South,190,5.0,13.0,87,0.00,,SKC,0.00,VWS V14.01,2013-02-14 16:17:00,
2013-02-14 11:22:00,37.1,33.6,29.79,SSE,158,11.0,14.0,87,0.00,,SKC,0.00,VWS V14.01,2013-02-14 16:22:00,
2013-02-14 11:27:00,37.5,33.7,29.79,South,187,7.0,19.0,86,0.00,,SKC,0.00,VWS V14.01,2013-02-14 16:27:00,
2013-02-14 11:30:00,37.6,33.8,29.79,SSW,207,17.0,17.0,86,0.00,,SKC,0.00,VWS V14.01,2013-02-14 16:30:00,
2013-02-14 11:32:00,37.6,33.8,29.79,South,179,10.0,17.0,86,0.00,,SKC,0.00,VWS V14.01,2013-02-14 16:32:00,
2013-02-14 11:37:00,37.7,33.9,29.79,South,188,12.0,12.0,86,0.00,,SKC,0.00,VWS V14.01,2013-02-14 16:37:00,
2013-02-14 11:42:00,37.8,34.0,29.79,South,188,13.0,18.0,86,0.00,,SKC,0.00,VWS V14.01,2013-02-14 16:42:00,
2013-02-14 11:47:00,38.1,34.0,29.79,South,188,18.0,20.0,85,0.00,,SKC,0.00,VWS V14.01,2013-02-14 16:47:00,
2013-02-14 11:52:00,38.5,34.4,29.79,SSE,167,4.0,20.0,85,0.00,,SKC,0.00,VWS V14.01,2013-02-14 16:52:00,
2013-02-14 11:57:00,38.7,34.3,29.79,SSW,211,7.0,20.0,84,0.00,,SKC,0.00,VWS V14.01,2013-02-14 16:57:00,
2013-02-14 12:00:00,38.9,34.5,29.79,SSE,168,12.0,16.0,84,0.00,,SKC,0.00,VWS V14.01,2013-02-14 17:00:00,
2013-02-14 12:02:00,38.9,34.5,29.78,SSW,196,16.0,16.0,84,0.00,,SKC,0.00,VWS V14.01,2013-02-14 17:02:00,
2013-02-14 12:07:00,39.1,34.7,29.78,South,174,6.0,14.0,84,0.00,,SKC,0.00,VWS V14.01,2013-02-14 17:07:00,
2013-02-14 12:12:00,39.2,34.5,29.79,SW,217,10.0,16.0,83,0.00,,SKC,0.00,VWS V14.01,2013-02-14 17:12:00,
2013-02-14 12:17:00,39.2,34.8,29.79,SSW,205,11.0,17.0,84,0.00,,SKC,0.00,VWS V14.01,2013-02-14 17:17:00,
2013-02-14 12:22:00,39.3,34.6,29.79,SSW,197,14.0,18.0,83,0.00,,SKC,0.00,VWS V14.01,2013-02-14 17:22:00,
2013-02-14 12:27:00,39.4,34.7,29.78,South,178,17.0,17.0,83,0.00,,SKC,0.00,VWS V14.01,2013-02-14 17:27:00,
2013-02-14 12:30:00,39.5,34.8,29.78,SSW,194,13.0,19.0,83,0.00,,SKC,0.00,VWS V14.01,2013-02-14 17:30:00,
2013-02-14 12:32:00,39.6,34.9,29.78,SSW,197,12.0,22.0,83,0.00,,SKC,0.00,VWS V14.01,2013-02-14 17:32:00,
2013-02-14 12:37:00,39.8,35.1,29.78,SSW,194,14.0,18.0,83,0.00,,SKC,0.00,VWS V14.01,2013-02-14 17:37:00,
2013-02-14 12:42:00,39.7,35.0,29.78,South,186,8.0,16.0,83,0.00,,SKC,0.00,VWS V14.01,2013-02-14 17:42:00,
2013-02-14 12:47:00,39.7,35.0,29.77,South,188,7.0,19.0,83,0.00,,SKC,0.00,VWS V14.01,2013-02-14 17:47:00,
2013-02-14 12:52:00,39.9,35.2,29.78,SSW,211,12.0,14.0,83,0.00,,SKC,0.00,VWS V14.01,2013-02-14 17:52:00,
2013-02-14 12:57:00,39.8,35.1,29.77,South,186,11.0,12.0,83,0.00,,SKC,0.00,VWS V14.01,2013-02-14 17:57:00,
2013-02-14 13:00:00,39.8,35.1,29.77,South,190,9.0,18.0,83,0.00,,SKC,0.00,VWS V14.01,2013-02-14 18:00:00,
2013-02-14 13:02:00,39.8,35.1,29.77,SSE,153,9.0,14.0,83,0.00,,SKC,0.00,VWS V14.01,2013-02-14 18:02:00,
2013-02-14 13:07:00,39.9,35.2,29.77,SSW,196,13.0,14.0,83,0.00,,SKC,0.00,VWS V14.01,2013-02-14 18:07:00,
2013-02-14 13:12:00,40.2,35.5,29.77,SSW,194,18.0,18.0,83,0.00,,SKC,0.00,VWS V14.01,2013-02-14 18:12:00,
2013-02-14 13:17:00,40.6,35.5,29.76,South,176,7.0,18.0,82,0.00,,SKC,0.00,VWS V14.01,2013-02-14 18:17:00,
2013-02-14 13:22:00,40.9,35.8,29.76,South,184,10.0,14.0,82,0.00,,SKC,0.00,VWS V14.01,2013-02-14 18:22:00,
2013-02-14 13:27:00,40.9,35.5,29.76,South,169,7.0,21.0,81,0.00,,SKC,0.00,VWS V14.01,2013-02-14 18:27:00,
2013-02-14 13:30:00,40.8,35.7,29.76,South,184,7.0,18.0,82,0.00,,SKC,0.00,VWS V14.01,2013-02-14 18:30:00,
2013-02-14 13:32:00,40.9,35.8,29.76,SSW,207,18.0,18.0,82,0.00,,SKC,0.00,VWS V14.01,2013-02-14 18:32:00,
2013-02-14 13:37:00,40.9,35.8,29.75,South,186,8.0,17.0,82,0.00,,SKC,0.00,VWS V14.01,2013-02-14 18:37:00,
2013-02-14 13:43:00,41.1,35.7,29.75,SSW,192,10.0,19.0,81,0.00,,SKC,0.00,VWS V14.01,2013-02-14 18:43:00,
2013-02-14 13:48:00,41.3,35.9,29.75,SSW,208,14.0,18.0,81,0.00,,SKC,0.00,VWS V14.01,2013-02-14 18:48:00,
2013-02-14 13:53:00,41.2,35.8,29.75,SSW,197,10.0,18.0,81,0.00,,SKC,0.00,VWS V14.01,2013-02-14 18:53:00,
2013-02-14 13:58:00,41.2,36.1,29.75,SW,225,16.0,16.0,82,0.00,,SKC,0.00,VWS V14.01,2013-02-14 18:58:00,
2013-02-14 14:00:00,41.3,36.2,29.75,SSE,159,17.0,20.0,82,0.00,,SKC,0.00,VWS V14.01,2013-02-14 19:00:00,
2013-02-14 14:03:00,41.3,35.9,29.75,SSW,201,17.0,17.0,81,0.00,,SKC,0.00,VWS V14.01,2013-02-14 19:03:00,
2013-02-14 14:08:00,41.3,36.2,29.75,South,184,6.0,17.0,82,0.00,,SKC,0.00,VWS V14.01,2013-02-14 19:08:00,
2013-02-14 14:13:00,41.2,36.1,29.75,South,188,13.0,13.0,82,0.00,,SKC,0.00,VWS V14.01,2013-02-14 19:13:00,
2013-02-14 14:18:00,41.3,36.2,29.75,SW,229,7.0,18.0,82,0.00,,SKC,0.00,VWS V14.01,2013-02-14 19:18:00,
2013-02-14 14:23:00,41.4,36.6,29.75,SSW,202,8.0,26.0,83,0.00,,SKC,0.00,VWS V14.01,2013-02-14 19:23:00,
2013-02-14 14:28:00,41.6,36.5,29.75,SW,232,10.0,14.0,82,0.00,,SKC,0.00,VWS V14.01,2013-02-14 19:28:00,
2013-02-14 14:30:00,41.9,36.8,29.75,South,184,9.0,12.0,82,0.00,,SKC,0.00,VWS V14.01,2013-02-14 19:30:00,
2013-02-14 14:33:00,42.0,36.9,29.75,South,191,8.0,13.0,82,0.00,,SKC,0.00,VWS V14.01,2013-02-14 19:33:00,
2013-02-14 14:38:00,42.2,36.8,29.75,SSW,203,9.0,14.0,81,0.00,,SKC,0.00,VWS V14.01,2013-02-14 19:38:00,
2013-02-14 14:43:00,42.1,36.7,29.74,SW,221,13.0,13.0,81,0.00,,SKC,0.00,VWS V14.01,2013-02-14 19:43:00,
2013-02-14 14:48:00,42.3,36.9,29.74,SSW,205,12.0,16.0,81,0.00,,SKC,0.00,VWS V14.01,2013-02-14 19:48:00,
2013-02-14 14:53:00,42.5,36.8,29.75,SSW,201,10.0,13.0,80,0.00,,SKC,0.00,VWS V14.01,2013-02-14 19:53:00,
2013-02-14 14:58:00,42.7,37.0,29.74,SSW,198,11.0,15.0,80,0.00,,SKC,0.00,VWS V14.01,2013-02-14 19:58:00,
2013-02-14 15:00:00,42.9,36.8,29.75,SSW,207,10.0,15.0,79,0.00,,SKC,0.00,VWS V14.01,2013-02-14 20:00:00,
2013-02-14 15:03:00,43.0,36.9,29.75,SW,229,10.0,20.0,79,0.00,,SKC,0.00,VWS V14.01,2013-02-14 20:03:00,
2013-02-14 15:08:00,43.0,36.9,29.74,SSW,202,13.0,18.0,79,0.00,,SKC,0.00,VWS V14.01,2013-02-14 20:08:00,
2013-02-14 15:13:00,43.1,36.7,29.75,SW,227,11.0,19.0,78,0.00,,SKC,0.00,VWS V14.01,2013-02-14 20:13:00,
2013-02-14 15:18:00,43.0,36.9,29.75,SW,219,9.0,12.0,79,0.00,,SKC,0.00,VWS V14.01,2013-02-14 20:18:00,
2013-02-14 15:23:00,42.9,36.8,29.75,SSW,213,9.0,16.0,79,0.00,,SKC,0.00,VWS V14.01,2013-02-14 20:23:00,
2013-02-14 15:28:00,42.9,36.8,29.75,WSW,240,12.0,17.0,79,0.00,,SKC,0.00,VWS V14.01,2013-02-14 20:28:00,
2013-02-14 15:30:00,42.9,36.8,29.75,SW,226,7.0,13.0,79,0.00,,SKC,0.00,VWS V14.01,2013-02-14 20:30:00,
2013-02-14 15:33:00,42.9,36.8,29.75,SSW,213,12.0,15.0,79,0.00,,SKC,0.00,VWS V14.01,2013-02-14 20:33:00,
2013-02-14 15:38:00,43.3,36.9,29.75,SW,224,16.0,18.0,78,0.00,,SKC,0.00,VWS V14.01,2013-02-14 20:38:00,
2013-02-14 15:43:00,43.5,36.8,29.76,WSW,244,14.0,24.0,77,0.00,,SKC,0.00,VWS V14.01,2013-02-14 20:43:00,
2013-02-14 15:48:00,43.6,36.9,29.76,SSW,213,19.0,20.0,77,0.00,,SKC,0.00,VWS V14.01,2013-02-14 20:48:00,
2013-02-14 15:53:00,43.7,36.6,29.76,WSW,251,15.0,22.0,76,0.00,,SKC,0.00,VWS V14.01,2013-02-14 20:53:00,
2013-02-14 15:58:00,43.7,36.6,29.76,WSW,249,13.0,15.0,76,0.00,,SKC,0.00,VWS V14.01,2013-02-14 20:58:00,
2013-02-14 16:00:00,43.5,36.5,29.76,WSW,255,9.0,19.0,76,0.00,,SKC,0.00,VWS V14.01,2013-02-14 21:00:00,
2013-02-14 16:03:00,43.4,36.3,29.76,WSW,248,23.0,23.0,76,0.00,,SKC,0.00,VWS V14.01,2013-02-14 21:03:00,
2013-02-14 16:08:00,42.8,35.8,29.77,WSW,248,19.0,21.0,76,0.00,,SKC,0.00,VWS V14.01,2013-02-14 21:08:00,
2013-02-14 16:13:00,42.3,35.0,29.78,WSW,252,16.0,26.0,75,0.00,,SKC,0.00,VWS V14.01,2013-02-14 21:13:00,
2013-02-14 16:18:00,41.9,34.6,29.78,SW,227,21.0,25.0,75,0.00,,SKC,0.00,VWS V14.01,2013-02-14 21:18:00,
2013-02-14 16:23:00,41.6,34.3,29.78,WSW,246,17.0,22.0,75,0.00,,SKC,0.00,VWS V14.01,2013-02-14 21:23:00,
2013-02-14 16:28:00,41.3,33.7,29.79,WSW,248,14.0,23.0,74,0.00,,SKC,0.00,VWS V14.01,2013-02-14 21:28:00,
2013-02-14 16:30:00,41.1,33.5,29.79,SW,236,12.0,22.0,74,0.00,,SKC,0.00,VWS V14.01,2013-02-14 21:30:00,
2013-02-14 16:33:00,41.0,33.0,29.79,SW,236,18.0,34.0,73,0.00,,SKC,0.00,VWS V14.01,2013-02-14 21:33:00,
2013-02-14 16:38:00,40.6,32.3,29.79,WSW,255,15.0,24.0,72,0.00,,SKC,0.00,VWS V14.01,2013-02-14 21:38:00,
2013-02-14 16:43:00,40.2,31.9,29.80,WSW,256,15.0,23.0,72,0.00,,SKC,0.00,VWS V14.01,2013-02-14 21:43:00,
2013-02-14 16:48:00,39.9,31.6,29.80,West,261,22.0,24.0,72,0.00,,SKC,0.00,VWS V14.01,2013-02-14 21:48:00,
2013-02-14 16:53:00,39.8,31.5,29.80,SW,236,19.0,27.0,72,0.00,,SKC,0.00,VWS V14.01,2013-02-14 21:53:00,
2013-02-14 17:00:00,39.4,31.1,29.81,WSW,248,19.0,34.0,72,0.00,,SKC,0.00,VWS V14.01,2013-02-14 22:00:00,
2013-02-14 17:12:00,38.8,32.0,29.82,WSW,244,13.0,23.0,75,0.00,,,0.00,weatherlink.com 1.10,2013-02-14 22:12:00,
2013-02-14 17:27:00,37.9,31.0,29.83,WSW,254,16.0,22.0,77,0.00,,,0.00,weatherlink.com 1.10,2013-02-14 22:27:00,
2013-02-14 17:30:00,37.7,30.8,29.83,WSW,248,14.0,33.0,76,0.00,,SKC,0.00,VWS V14.01,2013-02-14 22:30:00,
2013-02-14 17:42:00,37.3,30.0,29.84,SW,228,11.0,35.0,75,0.00,,,0.00,weatherlink.com 1.10,2013-02-14 22:42:00,
2013-02-14 17:57:00,37.1,30.0,29.85,WSW,254,18.0,29.0,76,0.00,,,0.00,weatherlink.com 1.10,2013-02-14 22:57:00,
2013-02-14 18:00:00,37.0,30.1,29.85,WSW,248,17.0,35.0,76,0.00,,SKC,0.00,VWS V14.01,2013-02-14 23:00:00,
2013-02-14 18:13:00,37.0,30.0,29.86,SW,225,23.0,27.0,77,0.00,,,0.00,weatherlink.com 1.10,2013-02-14 23:13:00,
2013-02-14 18:27:00,36.9,30.0,29.86,WSW,254,10.0,22.0,77,0.00,,,0.00,weatherlink.com 1.10,2013-02-14 23:27:00,
2013-02-14 18:30:00,36.8,30.3,29.86,WSW,248,15.0,27.0,77,0.00,,SKC,0.00,VWS V14.01,2013-02-14 23:30:00,
2013-02-14 18:43:00,36.8,31.0,29.86,WSW,239,12.0,20.0,78,0.00,,,0.00,weatherlink.com 1.10,2013-02-14 23:43:00,
2013-02-14 18:57:00,36.6,30.0,29.87,SW,234,10.0,22.0,78,0.00,,,0.00,weatherlink.com 1.10,2013-02-14 23:57:00,
2013-02-14 19:00:00,36.6,30.4,29.86,WSW,248,13.0,24.0,78,0.00,,SKC,0.00,VWS V14.01,2013-02-15 00:00:00,
2013-02-14 19:12:00,36.9,30.0,29.87,SW,236,14.0,25.0,77,0.00,,,0.00,weatherlink.com 1.10,2013-02-15 00:12:00,
2013-02-14 19:27:00,36.7,30.0,29.88,WSW,241,14.0,23.0,77,0.00,,,0.00,weatherlink.com 1.10,2013-02-15 00:27:00,
2013-02-14 19:30:00,36.7,30.5,29.88,WSW,248,13.0,25.0,78,0.00,,SKC,0.00,VWS V14.01,2013-02-15 00:30:00,
2013-02-14 19:43:00,36.7,30.0,29.89,SW,230,7.0,19.0,78,0.00,,,0.00,weatherlink.com 1.10,2013-02-15 00:43:00,
2013-02-14 19:58:00,36.5,30.0,29.89,WSW,239,9.0,22.0,78,0.00,,,0.00,weatherlink.com 1.10,2013-02-15 00:58:00,
2013-02-14 20:00:00,36.5,30.0,29.90,WSW,248,12.0,23.0,77,0.00,,SKC,0.00,VWS V14.01,2013-02-15 01:00:00,
2013-02-14 20:13:00,36.5,30.0,29.90,West,263,8.0,21.0,77,0.00,,,0.00,weatherlink.com 1.10,2013-02-15 01:13:00,
2013-02-14 20:28:00,36.4,30.0,29.91,WSW,238,15.0,19.0,79,0.00,,,0.00,weatherlink.com 1.10,2013-02-15 01:28:00,
2013-02-14 20:30:00,36.4,30.5,29.91,WSW,248,12.0,21.0,79,0.00,,SKC,0.00,VWS V14.01,2013-02-15 01:30:00,
2013-02-14 20:43:00,36.3,30.0,29.91,WSW,243,10.0,21.0,79,0.00,,,0.00,weatherlink.com 1.10,2013-02-15 01:43:00,
2013-02-14 20:58:00,36.2,31.0,29.91,West,262,11.0,18.0,80,0.00,,,0.00,weatherlink.com 1.10,2013-02-15 01:58:00,
2013-02-14 21:00:00,36.1,30.5,29.91,WSW,248,11.0,21.0,80,0.00,,SKC,0.00,VWS V14.01,2013-02-15 02:00:00,
2013-02-14 21:13:00,36.1,31.0,29.91,WSW,244,9.0,18.0,80,0.00,,,0.00,weatherlink.com 1.10,2013-02-15 02:13:00,
2013-02-14 21:28:00,36.0,30.0,29.92,West,281,11.0,18.0,79,0.00,,,0.00,weatherlink.com 1.10,2013-02-15 02:28:00,
2013-02-14 21:30:00,35.9,30.0,29.92,WSW,248,10.0,21.0,79,0.00,,SKC,0.00,VWS V14.01,2013-02-15 02:30:00,
2013-02-14 21:43:00,35.6,30.0,29.93,SW,225,6.0,16.0,80,0.00,,,0.00,weatherlink.com 1.10,2013-02-15 02:43:00,
2013-02-14 21:58:00,35.6,30.0,29.93,West,263,8.0,15.0,79,0.00,,,0.00,weatherlink.com 1.10,2013-02-15 02:58:00,
2013-02-14 22:00:00,35.6,29.7,29.93,WSW,248,9.0,16.0,79,0.00,,SKC,0.00,VWS V14.01,2013-02-15 03:00:00,
2013-02-14 22:13:00,35.5,29.0,29.93,WSW,251,6.0,12.0,78,0.00,,,0.00,weatherlink.com 1.10,2013-02-15 03:13:00,
2013-02-14 22:28:00,35.3,29.0,29.93,WSW,247,5.0,13.0,78,0.00,,,0.00,weatherlink.com 1.10,2013-02-15 03:28:00,
2013-02-14 22:30:00,35.2,29.0,29.93,WSW,248,7.0,13.0,78,0.00,,SKC,0.00,VWS V14.01,2013-02-15 03:30:00,
2013-02-14 22:43:00,34.8,29.0,29.93,WSW,254,7.0,11.0,78,0.00,,,0.00,weatherlink.com 1.10,2013-02-15 03:43:00,
2013-02-14 22:58:00,34.4,28.0,29.93,WSW,244,7.0,11.0,78,0.00,,,0.00,weatherlink.com 1.10,2013-02-15 03:58:00,
2013-02-14 23:00:00,34.3,28.5,29.94,WSW,248,6.0,15.0,79,0.00,,SKC,0.00,VWS V14.01,2013-02-15 04:00:00,
2013-02-14 23:13:00,34.1,28.0,29.94,WSW,246,7.0,14.0,78,0.00,,,0.00,weatherlink.com 1.10,2013-02-15 04:13:00,
2013-02-14 23:28:00,34.4,28.0,29.94,West,271,9.0,16.0,76,0.00,,,0.00,weatherlink.com 1.10,2013-02-15 04:28:00,
2013-02-14 23:30:00,34.4,27.6,29.94,West,270,7.0,17.0,76,0.00,,SKC,0.00,VWS V14.01,2013-02-15 04:30:00,
2013-02-14 23:43:00,34.4,27.0,29.94,WNW,292,3.0,16.0,75,0.00,,,0.00,weatherlink.com 1.10,2013-02-15 04:43:00,
2013-02-14 23:58:00,33.9,26.0,29.95,West,270,6.0,15.0,74,0.00,,,0.00,weatherlink.com 1.10,2013-02-15 04:58:00,